This demonstration page uses our WeatherBlox Daily Observations layout. Learn more.

Left ArrowRight Arrow

39.51506, -84.39828

Hourly Observations for February 11, 2018

Temp ( °F °C ) Dew Point ( °F °C ) Humidity (%) Winds ( mph kmh ) Pressure ( in mb ) Visibility ( mi km ) Precip ( " mm )
12:15 am 00:15 Cloudy 30 -0.9 27 -2.9 86 86 NE 7 11 30.03 1017 4 6 0.00 0.00
12:35 am 00:35 Cloudy 30 -0.9 27 -3 86 86 NE 7 11 30.00 1016 4 6 0.00 0.00
12:55 am 00:55 Cloudy 30 -0.9 27 -3 86 86 NE 7 11 30.00 1016 4 6 0.00 0.00
1:15 am 01:15 Cloudy 30 -0.9 27 -2.9 86 86 ENE 7 11 30.00 1016 4 6 0.00 0.00
1:35 am 01:35 Cloudy 30 -0.9 27 -2.8 87 87 NE 6 9 30.00 1016 4 6 0.00 0.00
1:55 am 01:55 Cloudy 31 -0.8 27 -2.7 87 87 NE 7 11 29.97 1015 4 6 0.00 0.00
2:15 am 02:15 Cloudy 31 -0.8 27 -2.6 88 88 NE 7 11 29.97 1015 4 6 0.00 0.00
2:35 am 02:35 Cloudy 30 -0.9 27 -2.7 88 88 NE 6 9 29.97 1015 4 6 0.00 0.00
2:55 am 02:55 Cloudy 30 -0.9 27 -2.7 88 88 NE 5 7 29.97 1015 4 6 0.00 0.00
3:15 am 03:15 Cloudy 31 -0.8 27 -2.7 87 87 NE 7 11 29.94 1014 4 6 0.00 0.00
3:35 am 03:35 Cloudy 31 -0.8 27 -2.7 87 87 ENE 7 11 29.94 1014 4 6 0.00 0.00
3:55 am 03:55 Cloudy 31 -0.7 28 -2.4 88 88 ENE 7 11 29.91 1013 4 6 0.00 0.00
4:15 am 04:15 Cloudy 31 -0.6 28 -2.4 88 88 NNE 6 9 29.91 1013 4 6 0.00 0.00
4:35 am 04:35 Cloudy 31 -0.6 28 -2.3 88 88 NE 6 9 29.91 1013 4 6 0.00 0.00
4:55 am 04:55 Cloudy 31 -0.5 28 -2.2 88 88 ENE 7 11 29.91 1013 4 6 0.00 0.00
5:15 am 05:15 Cloudy 31 -0.5 29 -1.7 92 92 NE 7 11 29.88 1012 3 4 0.00 0.00
5:35 am 05:35 Cloudy 31 -0.5 29 -1.4 94 94 ENE 7 11 29.88 1012 2 3 0.00 0.00
5:55 am 05:55 Cloudy 31 -0.5 30 -1.3 94 94 ENE 5 7 29.88 1012 2 3 0.00 0.00
6:15 am 06:15 Cloudy 31 -0.4 30 -1.1 95 95 ENE 3 6 29.88 1012 2 3 0.00 0.00
6:35 am 06:35 Cloudy 31 -0.3 30 -0.9 96 96 Calm 29.88 1012 2 3 0.00 0.00
6:55 am 06:55 Cloudy 32 -0.2 31 -0.7 96 96 Calm 29.85 1011 2 2 0.00 0.00
7:15 am 07:15 Cloudy 32 -0.2 31 -0.6 97 97 Calm 29.85 1011 1 2 0.00 0.00
7:35 am 07:35 Cloudy 32 -0.1 31 -0.4 98 98 Calm 29.85 1011 1 2 0.00 0.00
7:55 am 07:55 Cloudy 32 -0.1 31 -0.3 99 99 Calm 29.85 1011 0 0 0.00 0.00
8:15 am 08:15 Cloudy 32 0.1 32 -0.1 99 99 Calm 29.85 1011 1 1 0.00 0.00
8:35 am 08:35 Cloudy 32 0.2 32 0 99 99 W 3 6 29.85 1011 0 0 0.00 0.00
8:55 am 08:55 Cloudy 33 0.3 32 0.1 99 99 Calm 29.85 1011 0 0 0.00 0.00
9:15 am 09:15 Cloudy 34 0.9 33 0.8 99 99 W 7 11 29.88 1012 1 1 0.00 0.00
9:35 am 09:35 Cloudy 34 1 33 0.8 99 99 Calm 29.85 1011 1 1 0.00 0.00
9:55 am 09:55 Cloudy 34 1.1 34 1 99 99 Calm 29.85 1011 1 1 0.17 4.32
10:15 am 10:15 Cloudy 34 1.3 34 1.1 99 99 WNW 3 6 29.88 1012 1 2 0.01 0.25
10:35 am 10:35 Cloudy 35 1.5 34 1.1 97 97 NW 3 6 29.88 1012 3 4 0.01 0.25
10:55 am 10:55 Cloudy 36 2 35 1.4 96 96 NW 3 6 29.88 1012 4 6 0.01 0.25
11:15 am 11:15 Cloudy 35 1.8 34 1.1 95 95 Calm 29.88 1012 3 4 0.03 0.76
11:35 am 11:35 Cloudy 36 2 34 1.3 95 95 NW 3 6 29.88 1012 3 5 0.08 2.03
11:55 am 11:55 Cloudy 36 2.2 34 1.2 93 93 WNW 6 9 29.85 1011 5 8 0.08 2.03
12:15 pm 12:15 Cloudy 36 2.4 34 1.3 93 93 W 3 6 29.85 1011 7 11 0.00 0.00
12:35 pm 12:35 Cloudy 37 2.7 35 1.4 91 91 W 7 11 29.85 1011 10 16 0.00 0.00
12:55 pm 12:55 Cloudy 37 2.5 34 1.1 91 91 W 7 11 29.85 1011 7 11 0.00 0.00
1:15 pm 13:15 Cloudy 36 2.4 34 0.9 90 90 W 8 13 29.91 1013 7 11 0.00 0.00
1:35 pm 13:35 Cloudy 36 2.2 34 1.1 93 93 Calm 29.85 1011 4 6 0.00 0.00
1:55 pm 13:55 Cloudy 36 2.3 33 0.8 90 90 W 8 13 29.91 1013 7 11 0.00 0.00
2:15 pm 14:15 Cloudy 35 1.9 33 0.3 89 89 WNW 12 19 29.91 1013 10 16 0.00 0.00
2:35 pm 14:35 Cloudy 35 1.4 31 -0.3 89 89 WNW 8 13 29.91 1013 10 16 0.00 0.00
2:55 pm 14:55 Cloudy 34 1 31 -0.7 89 89 W 13 20 29.94 1014 10 16 0.00 0.00
3:15 pm 15:15 Cloudy 33 0.7 30 -1.3 87 87 WNW 12 19 29.97 1015 10 16 0.00 0.00
3:35 pm 15:35 Cloudy 33 0.5 29 -1.5 87 87 WNW 12 19 30.00 1016 10 16 0.00 0.00
3:55 pm 15:55 Cloudy 33 0.3 29 -1.6 87 87 WNW 9 15 30.00 1016 10 16 0.00 0.00
4:15 pm 16:15 Cloudy 32 0.2 29 -1.9 86 86 WNW 12 19 30.03 1017 10 16 0.00 0.00
4:35 pm 16:35 Cloudy 32 0 28 -2.2 85 85 W 9 15 30.06 1018 7 11 0.00 0.00
4:55 pm 16:55 Cloudy 31 -0.3 28 -2.3 87 87 W 9 15 30.06 1018 7 11 0.00 0.00
5:15 pm 17:15 Cloudy 31 -0.4 27 -2.6 85 85 WNW 10 17 30.09 1019 10 16 0.00 0.00
5:35 pm 17:35 Cloudy 31 -0.5 27 -2.8 85 85 NW 9 15 30.09 1019 10 16 0.00 0.00
5:55 pm 17:55 Cloudy 31 -0.6 27 -3 84 84 NW 8 13 30.09 1019 10 16 0.00 0.00
6:15 pm 18:15 Cloudy 31 -0.6 26 -3.1 83 83 NW 10 17 30.12 1020 10 16 0.00 0.00
6:35 pm 18:35 Cloudy 31 -0.6 26 -3.4 82 82 WNW 7 11 30.15 1021 10 16 0.00 0.00
6:55 pm 18:55 Cloudy 31 -0.7 26 -3.5 82 82 NW 7 11 30.15 1021 10 16 0.00 0.00
7:15 pm 19:15 Cloudy 31 -0.7 26 -3.6 81 81 WNW 8 13 30.15 1021 10 16 0.00 0.00
7:35 pm 19:35 Cloudy 31 -0.8 25 -3.9 80 80 WNW 9 15 30.18 1022 10 16 0.00 0.00
7:55 pm 19:55 Cloudy 30 -0.9 24 -4.2 79 79 NW 7 11 30.18 1022 10 16 0.00 0.00
8:15 pm 20:15 Cloudy 30 -0.9 25 -4.1 79 79 NNW 8 13 30.18 1022 10 16 0.00 0.00
8:35 pm 20:35 Cloudy 30 -1 25 -3.8 82 82 NW 6 9 30.21 1023 10 16 0.00 0.00
8:55 pm 20:55 Cloudy 30 -1 25 -3.8 82 82 NW 6 9 30.24 1024 10 16 0.00 0.00
9:15 pm 21:15 Cloudy 30 -1.1 25 -4.1 80 80 NNW 6 9 30.24 1024 10 16 0.00 0.00
9:35 pm 21:35 Cloudy 30 -1.1 25 -4.1 80 80 NW 6 9 30.27 1025 10 16 0.00 0.00
9:55 pm 21:55 Cloudy 30 -1.1 24 -4.2 80 80 NNW 5 7 30.27 1025 10 16 0.00 0.00
10:15 pm 22:15 Cloudy 30 -1.1 24 -4.2 80 80 WNW 5 7 30.27 1025 10 16 0.00 0.00
10:35 pm 22:35 Cloudy 30 -1.2 24 -4.2 80 80 NW 8 13 30.27 1025 10 16 0.00 0.00
10:55 pm 22:55 Cloudy 29 -1.4 24 -4.5 80 80 NW 7 11 30.30 1026 10 16 0.00 0.00
11:15 pm 23:15 Cloudy 29 -1.5 24 -4.5 80 80 N 8 13 30.30 1026 10 16 0.00 0.00
11:35 pm 23:35 Cloudy 29 -1.5 23 -4.9 78 78 NW 8 13 30.30 1026 10 16 0.00 0.00
11:55 pm 23:55 Cloudy 29 -1.6 22 -5.3 76 76 N 9 15 30.33 1027 10 16 0.00 0.00

Powered by AerisWeather